Weather History for Harrisburg, PA

Change the Weather History Date:

Monday, June 24, 2013

  Actual Average Record
Temperature  
Mean Temperature 78 °F -  
Max Temperature 91 °F 82 °F 98 °F (1966)
Min Temperature 66 °F 62 °F 49 °F (1902)
Cooling Degree Days 14    
Growing Degree Days 28 (Base 50)    
Moisture  
Dew Point 66 °F    
Average Humidity 65    
Maximum Humidity 90    
Minimum Humidity 43    
Precipitation  
Precipitation 0.00 in - - ()
Sea Level Pressure  
Sea Level Pressure 30.06 in    
Wind  
Wind Speed 4 mph (West)    
Max Wind Speed 12 mph    
Max Gust Speed -    
Visibility 10 miles    
Events Rain    
Averages and records for this station are not official NWS values.
T = Trace of Precipitation, MM = Missing Value Source: NWS Daily Summary

Daily Weather History Graph

Daily Weather History Graph

Search for Another Location

Airport:

Trip Planner

Search our weather history database for the weather conditions in past years. The results will help you decide how hot, cold, wet, or windy it might be!

Date:

Astronomy

Jun. 24, 2013 Rise Set
Actual Time 5:38 AM EDT 8:40 PM EDT
Civil Twilight 5:05 AM EDT 9:13 PM EDT
Nautical Twilight 4:23 AM EDT 9:55 PM EDT
Astronomical Twilight 3:34 AM EDT 10:45 PM EDT
Moon 9:41 PM EDT (6/24) 7:04 AM EDT (6/24)
Length of Visible Light 16h 08m
Length of Day
15h 02m
Full, 98% of the Moon is Illuminated
Jun 24
Full
Jun 30
Last Quarter
Jul 8
New
Jul 15
First Quarter
Jul 22
Full

Hourly Weather History & Observations

Time (EDT) Temp. Heat Index Dew Point Humidity Pressure Visibility Wind Dir Wind Speed Gust Speed Precip Events Conditions
12:56 AM 72.0 °F - 66.0 °F 81% 30.10 in 10.0 mi West 3.5 mph - N/A   Clear
1:56 AM 72.0 °F - 64.0 °F 76% 30.09 in 10.0 mi West 3.5 mph - N/A   Clear
2:56 AM 70.0 °F - 64.0 °F 81% 30.08 in 10.0 mi Calm Calm - N/A   Clear
3:56 AM 69.1 °F - 64.9 °F 87% 30.09 in 10.0 mi Calm Calm - N/A   Clear
4:56 AM 66.9 °F - 64.0 °F 90% 30.09 in 10.0 mi SW 3.5 mph - N/A   Clear
5:56 AM 68.0 °F - 64.9 °F 90% 30.09 in 9.0 mi Calm Calm - N/A   Clear
6:56 AM 71.1 °F - 66.0 °F 84% 30.11 in 10.0 mi Calm Calm - N/A   Clear
7:56 AM 75.0 °F - 68.0 °F 79% 30.12 in 10.0 mi West 3.5 mph - N/A   Partly Cloudy
8:56 AM 78.1 °F - 68.0 °F 71% 30.11 in 10.0 mi West 4.6 mph - N/A   Clear
9:56 AM 82.0 °F 85.5 °F 69.1 °F 65% 30.10 in 10.0 mi WSW 5.8 mph - N/A   Clear
10:56 AM 86.0 °F 90.7 °F 70.0 °F 59% 30.11 in 10.0 mi West 8.1 mph - N/A   Clear
11:56 AM 88.0 °F 90.7 °F 66.9 °F 49% 30.10 in 10.0 mi WNW 9.2 mph - N/A   Scattered Clouds
12:56 PM 90.0 °F 92.4 °F 66.0 °F 45% 30.08 in 10.0 mi West 5.8 mph - N/A   Scattered Clouds
1:56 PM 90.0 °F 92.4 °F 66.0 °F 45% 30.05 in 10.0 mi NNW 11.5 mph - 0.00 in Rain Light Rain
2:56 PM 91.0 °F 93.8 °F 66.0 °F 44% 30.03 in 10.0 mi West 8.1 mph - 0.00 in   Scattered Clouds
3:56 PM 89.1 °F 90.3 °F 64.0 °F 43% 30.01 in 10.0 mi WNW 8.1 mph - N/A   Scattered Clouds
4:56 PM 90.0 °F 92.4 °F 66.0 °F 45% 30.01 in 10.0 mi Variable 6.9 mph - N/A   Clear
5:56 PM 89.1 °F 90.3 °F 64.0 °F 43% 30.00 in 10.0 mi West 8.1 mph - N/A   Clear
6:56 PM 84.9 °F 86.1 °F 64.0 °F 49% 30.00 in 10.0 mi SSW 11.5 mph - N/A   Clear
7:56 PM 81.0 °F 83.0 °F 66.0 °F 60% 30.01 in 10.0 mi SW 10.4 mph - N/A   Clear
8:56 PM 79.0 °F - 66.0 °F 64% 30.00 in 10.0 mi WSW 5.8 mph - N/A   Clear
9:56 PM 78.1 °F - 64.9 °F 64% 30.01 in 10.0 mi Calm Calm - N/A   Clear
10:56 PM 75.9 °F - 64.9 °F 69% 30.03 in 10.0 mi Calm Calm - N/A   Clear
11:56 PM 73.9 °F - 66.0 °F 76% 30.03 in 10.0 mi Calm Calm - N/A   Clear